Theta_e
317 318 319 319 323 327 325 324 322 323 321 315 316 318 322 326 326 325 326 326 328 330 330 331 333 332 333 334 334 332 334 338 336 335 339 341 338 337 336 334 335 337 338 340 340 340 339 339 338 339 338 337 338 338 338 337 337 337 335 333 332 333 334 333 332 332 332 332 333 333 333 333 333 333 333 333 333 332 333 334 335 334 333 332 333 334 333 331 330 330 329 327 326 326 326 325 323
318 320 320 321 324 325 324 324 320 318 316 313 315 318 322 326 325 325 326 327 331 331 330 332 332 333 333 334 332 331 336 336 336 337 338 338 336 337 334 332 335 336 337 338 339 340 340 338 336 336 337 337 337 338 337 337 336 337 336 334 333 334 334 333 333 333 334 333 333 333 333 333 332 333 333 333 333 333 333 333 334 334 333 333 333 333 333 333 331 330 329 328 327 326 325 324 322
320 322 324 323 324 323 322 322 318 314 313 313 315 321 323 324 325 327 329 330 332 330 331 333 332 334 333 333 332 333 336 335 336 337 337 337 337 335 333 332 334 335 336 336 337 339 339 338 333 332 336 337 337 337 336 336 337 337 336 334 333 334 334 334 334 334 334 333 332 333 333 333 332 332 332 333 333 332 332 333 334 333 333 334 334 333 333 334 333 330 327 326 326 325 324 324 323
319 321 324 324 323 322 321 322 320 314 313 312 313 320 323 323 327 330 332 331 331 330 332 333 332 334 333 336 332 333 337 337 338 337 337 337 337 335 332 334 335 335 335 335 335 337 338 336 331 332 337 337 336 337 336 336 337 336 336 334 332 332 331 332 333 332 333 332 330 331 331 332 332 331 331 332 332 332 332 332 333 332 332 333 333 333 334 334 333 331 328 325 325 325 324 324 324
320 321 321 323 323 322 321 321 320 316 314 315 314 319 321 323 328 332 333 331 330 332 332 332 334 333 332 336 333 336 339 337 339 337 338 337 337 335 333 333 335 335 335 335 334 336 336 332 331 334 337 336 336 337 336 336 335 335 335 334 333 331 330 332 333 331 331 331 329 329 329 330 331 331 331 331 331 331 331 331 331 332 332 332 332 332 333 333 333 331 329 326 324 324 324 324 324
321 322 320 322 322 322 320 317 316 316 318 320 317 319 320 321 328 332 332 330 330 330 331 332 334 333 332 335 335 338 338 337 339 337 337 338 336 334 333 333 334 334 335 335 333 336 334 330 333 336 336 336 336 337 337 335 333 334 334 334 332 330 331 332 332 331 330 329 330 330 330 330 331 331 331 331 331 331 331 331 330 331 332 332 332 332 331 331 331 329 328 326 324 324 324 325 324
322 323 322 322 321 321 320 316 315 317 320 321 319 319 319 322 328 332 332 330 329 328 329 332 333 332 334 335 336 337 337 338 338 337 337 337 335 332 332 333 334 334 335 334 334 336 333 331 334 336 337 336 337 337 337 335 333 333 334 333 331 331 331 331 332 332 330 330 331 332 332 332 331 329 330 331 330 330 331 331 330 331 332 332 332 332 330 329 329 328 327 326 325 324 324 325 324
321 323 323 323 323 322 320 316 317 320 320 320 319 318 319 323 327 330 331 330 329 329 329 332 331 331 334 333 336 338 335 338 338 338 337 336 335 332 332 333 333 334 334 334 335 335 333 333 336 337 337 337 337 337 337 335 332 331 332 332 331 331 331 332 332 332 331 331 332 332 332 332 331 330 331 331 330 330 330 331 330 331 331 332 332 332 331 328 328 327 326 325 325 324 324 325 324
320 322 322 323 324 323 319 317 318 320 321 320 319 318 319 323 327 328 329 328 327 328 329 331 330 330 332 331 336 337 336 337 338 337 336 335 334 333 333 333 333 334 334 334 336 335 334 335 336 337 337 337 337 336 336 333 331 329 330 331 330 330 330 331 333 332 331 331 331 331 331 331 331 330 329 329 329 329 329 330 330 330 331 331 331 331 331 329 328 327 326 326 325 325 324 324 325
321 321 322 324 323 320 318 317 317 320 321 320 320 318 319 322 326 327 327 327 325 327 329 330 329 328 329 331 336 337 336 337 338 337 335 334 334 333 334 333 333 334 334 333 336 336 335 335 335 337 337 337 337 335 334 331 329 328 328 330 330 331 330 330 331 331 329 328 328 327 328 329 329 328 327 327 327 328 328 328 329 329 330 330 330 330 329 329 327 327 327 326 325 325 324 324 324
322 321 322 322 320 318 317 317 317 320 321 320 320 318 319 322 326 327 327 326 324 327 330 328 326 325 326 331 336 337 336 337 338 336 334 335 334 333 333 333 333 333 333 333 336 336 335 335 335 336 337 337 336 334 332 330 329 329 330 331 331 330 329 329 330 331 329 327 327 326 326 328 328 326 327 328 327 328 328 328 328 328 328 329 329 329 329 328 327 327 326 325 325 324 324 324 324
323 323 322 321 319 320 320 319 317 319 320 320 321 319 319 323 326 327 326 325 323 326 327 326 326 324 325 329 335 337 336 338 338 336 335 335 334 333 333 332 332 332 332 333 335 336 336 336 335 335 336 336 334 332 331 331 330 330 331 331 330 329 329 329 329 330 330 328 327 326 325 325 326 326 328 328 328 328 328 328 328 327 327 327 327 328 328 327 327 326 325 324 323 323 323 323 323
323 324 323 321 322 323 321 320 320 318 318 321 322 320 320 323 326 326 324 323 322 323 325 325 325 323 324 329 335 336 336 338 337 335 335 334 333 332 332 332 332 332 332 333 333 334 335 336 335 335 336 335 332 332 332 332 330 330 330 329 329 329 329 329 328 328 330 330 329 327 324 322 323 327 328 327 327 327 327 327 328 328 327 327 326 326 326 326 325 324 323 321 321 320 321 321 321
323 324 324 323 324 324 322 321 321 317 317 322 322 321 322 324 325 324 324 323 322 324 327 326 324 322 324 328 334 335 336 337 337 336 335 334 333 332 332 331 331 331 332 332 332 333 333 334 335 336 335 335 333 332 332 330 329 328 327 327 328 328 327 328 328 327 330 331 329 327 325 322 322 325 326 325 325 325 326 326 326 326 326 325 325 325 324 322 321 320 319 319 318 318 319 319 319
323 323 323 324 323 322 322 322 322 316 317 322 321 321 323 322 322 323 323 322 324 326 326 328 327 324 322 324 332 336 336 338 337 336 336 334 333 331 332 331 330 331 332 332 331 332 332 332 335 335 335 335 334 333 332 330 329 328 327 327 326 326 326 327 329 328 330 329 327 326 325 324 321 320 321 321 320 320 320 322 323 324 325 324 324 324 321 319 318 317 317 317 317 317 318 318 319
322 322 323 323 321 321 322 323 322 317 317 319 318 320 323 321 320 321 321 321 324 325 324 327 328 326 323 324 334 338 337 338 337 336 335 334 332 331 331 331 330 331 331 331 331 331 332 332 333 334 335 335 334 333 332 330 329 328 328 328 325 325 324 326 329 328 328 327 326 326 326 325 321 319 321 320 317 316 317 319 321 322 323 323 323 321 318 316 316 317 317 318 318 318 318 319 318
321 323 324 322 321 321 321 323 320 317 317 318 317 319 323 322 320 319 319 319 322 324 324 327 327 326 326 326 334 338 337 337 337 336 335 334 332 330 331 330 330 330 331 331 330 331 331 332 332 332 333 334 334 334 333 331 329 329 328 327 324 324 324 324 327 328 328 326 326 325 326 327 324 323 324 321 318 315 315 316 317 318 318 319 319 319 318 318 318 318 319 319 319 318 318 320 318
321 323 323 320 323 322 320 320 318 318 319 317 317 317 321 322 320 319 320 320 322 323 324 328 328 326 329 327 332 338 337 337 337 336 335 334 332 330 331 330 330 330 331 331 330 330 330 331 331 331 331 331 333 333 333 331 329 329 328 327 324 323 324 323 325 327 327 326 324 324 326 327 326 326 325 323 320 317 315 315 316 316 317 317 318 318 319 318 318 318 318 318 317 317 319 322 322
322 323 323 322 322 319 317 317 316 317 317 316 317 315 317 320 320 320 321 321 322 323 323 327 327 326 329 327 332 338 337 338 337 336 335 334 333 331 331 331 331 330 331 331 330 330 330 330 330 330 331 330 331 332 332 330 329 328 328 327 325 324 324 324 326 326 327 327 325 325 326 326 326 325 324 323 320 316 316 316 316 317 317 317 318 318 317 317 317 317 316 316 315 317 321 324 324
320 322 324 323 320 317 315 316 314 315 315 316 317 315 315 317 319 320 320 321 321 322 322 325 326 326 328 327 333 338 337 338 338 337 336 335 334 332 332 331 331 331 331 330 330 330 330 330 330 329 330 330 330 330 329 328 327 327 327 327 327 326 325 325 326 326 326 326 326 326 326 325 326 324 321 319 319 319 317 315 316 316 316 316 316 316 316 316 315 315 315 316 318 321 323 323 323
319 321 323 320 318 318 315 315 314 313 314 314 316 316 316 316 316 318 319 320 320 321 320 323 324 325 329 328 332 337 336 337 337 337 336 335 335 333 332 332 332 332 331 331 330 330 330 330 330 329 330 330 329 328 328 327 327 328 327 328 327 327 326 326 326 326 326 326 326 326 326 325 325 324 321 321 323 323 321 319 319 319 319 317 315 317 319 318 318 320 319 321 323 323 324 324 324
318 318 319 317 317 317 315 315 314 313 314 314 316 316 316 315 315 316 318 319 320 319 319 320 320 323 330 329 332 336 336 337 337 338 337 336 335 334 334 333 332 332 331 331 331 330 330 330 330 329 329 329 329 328 328 327 328 328 327 327 328 327 326 326 325 326 326 325 326 326 325 324 325 325 323 324 324 324 323 324 323 320 320 319 317 320 321 320 323 324 324 325 325 325 325 325 326
319 317 315 316 317 317 316 316 314 313 315 315 315 314 314 315 316 316 317 318 319 319 317 319 320 324 331 331 332 335 334 336 337 337 338 336 336 335 334 334 332 332 331 331 331 330 330 330 330 329 329 329 328 328 328 327 327 328 327 325 327 327 325 324 324 325 325 326 326 325 325 324 325 325 322 321 321 323 324 324 323 320 321 322 320 322 322 322 325 325 325 326 326 326 326 326 326
321 317 315 315 316 317 317 317 316 315 318 317 315 314 314 315 317 316 316 317 317 319 317 318 322 328 332 331 332 334 335 336 336 336 337 337 336 335 335 334 333 332 332 331 331 330 330 330 329 329 329 329 328 328 328 328 327 328 328 323 324 326 324 324 325 325 324 324 325 324 324 324 324 324 323 322 320 322 324 323 324 322 323 324 322 324 326 325 326 325 326 326 326 326 326 326 326
323 319 316 316 317 319 318 318 319 318 318 317 316 317 317 316 315 314 315 316 316 319 318 318 324 330 330 330 331 333 335 336 335 335 336 336 336 336 335 335 334 334 333 332 331 330 330 329 329 329 328 328 328 328 328 328 327 328 327 320 322 324 321 325 326 325 324 323 324 324 325 324 324 325 324 324 323 323 323 321 324 325 325 325 324 325 326 326 326 326 326 326 326 326 326 326 326
324 321 318 318 319 319 319 319 320 320 319 318 319 321 319 314 313 314 315 316 317 319 319 318 323 328 329 328 330 332 334 336 336 336 335 336 336 336 336 335 335 335 334 333 332 331 330 329 329 329 328 328 328 328 328 328 327 328 326 320 322 318 316 326 327 324 324 324 324 323 325 326 325 326 325 326 324 324 323 320 324 326 326 326 326 326 326 326 326 326 326 326 326 326 325 326 325
321 320 320 320 321 321 321 320 321 321 320 320 320 321 320 314 313 316 317 317 318 319 319 319 322 325 327 328 330 332 334 335 336 336 335 335 336 336 336 335 335 335 335 334 333 332 330 329 328 328 329 328 328 328 327 328 328 328 326 322 321 313 314 325 326 326 326 326 325 322 324 327 327 328 327 326 325 326 325 324 326 326 326 327 326 326 326 326 326 326 326 325 325 325 325 325 324
319 321 323 322 323 324 322 322 323 322 321 319 318 320 321 317 312 315 317 317 317 317 319 321 322 323 326 328 330 332 333 335 335 336 335 335 335 336 336 335 335 335 335 335 334 333 331 330 328 328 329 327 327 328 327 328 328 327 326 324 322 315 313 321 323 327 327 327 327 322 323 327 327 328 328 327 327 327 327 327 327 326 326 326 326 326 326 326 326 326 326 326 325 325 324 324 324
321 322 325 325 325 326 324 325 323 321 322 318 318 321 323 320 315 315 318 317 318 318 320 322 321 321 325 328 330 331 333 334 335 335 335 334 334 335 335 335 335 335 335 334 334 333 332 331 329 328 329 326 325 328 328 327 328 326 323 324 324 317 314 317 320 326 327 327 327 321 323 328 327 327 328 328 327 327 327 327 326 326 326 326 326 326 326 326 325 325 325 325 325 324 324 323 323
322 322 324 326 327 326 326 325 320 319 320 316 319 323 324 322 319 317 318 318 319 318 320 322 322 322 325 328 330 330 332 334 335 335 335 334 335 334 334 335 335 335 334 334 334 333 333 332 330 328 329 326 322 326 329 326 325 323 320 322 323 317 315 316 317 324 326 326 326 321 323 328 328 327 328 328 328 327 327 326 327 327 326 326 326 326 326 326 325 325 325 325 325 324 323 323 323
323 323 324 326 328 328 324 320 318 319 317 312 319 323 323 324 320 317 317 319 318 318 319 321 322 323 325 329 330 330 332 334 335 334 334 334 334 334 334 334 335 335 334 334 334 334 333 333 332 330 329 327 322 324 328 326 323 321 319 319 320 316 316 317 318 323 325 325 326 323 323 327 328 328 328 328 328 328 327 327 327 327 326 326 326 326 325 325 325 325 325 325 324 323 323 323 323
325 326 328 327 328 328 324 319 318 320 315 310 317 321 322 323 319 314 315 318 318 317 318 319 322 324 325 328 329 329 330 333 334 333 334 334 334 334 333 333 334 334 334 334 334 334 334 333 332 331 330 329 326 324 326 327 325 321 319 319 320 318 318 321 322 323 324 324 326 326 324 326 328 328 329 329 328 328 327 327 327 326 327 326 326 325 324 324 325 325 324 325 324 324 323 323 324
326 328 330 330 328 328 327 320 316 317 316 313 315 318 320 319 316 312 311 315 318 318 318 318 322 323 324 327 327 328 329 332 333 333 334 333 334 334 333 333 333 333 333 334 334 333 334 333 333 332 331 331 329 325 324 326 326 322 320 322 322 321 321 325 326 325 325 324 326 328 327 327 328 329 329 329 328 328 328 327 327 327 327 327 326 325 325 324 325 325 325 325 324 324 324 324 325
329 328 329 330 329 328 327 320 313 313 315 316 316 316 317 317 316 314 312 314 317 317 317 317 320 323 324 326 327 328 329 331 332 333 333 333 334 333 333 333 333 333 333 333 333 333 334 334 333 333 332 332 331 329 327 326 327 325 324 325 326 327 327 329 329 328 327 326 327 329 329 329 329 329 329 329 328 328 328 328 327 327 327 326 325 325 325 325 325 325 325 326 325 325 324 325 324
330 329 329 329 327 325 325 322 315 313 315 317 317 316 317 316 315 316 315 315 316 316 316 316 317 321 323 325 325 327 329 330 332 333 333 333 333 333 333 333 333 333 333 332 333 333 333 333 334 333 332 332 332 332 330 329 329 328 328 329 329 330 330 331 331 330 329 328 328 329 329 329 329 329 329 329 328 328 328 328 327 327 328 327 325 325 325 326 326 325 326 326 326 325 325 324 324
329 329 328 328 328 325 324 323 317 314 317 318 318 318 318 317 316 316 317 316 316 315 315 316 316 318 321 323 323 325 327 328 331 333 333 332 333 333 333 333 333 333 332 332 332 333 333 333 333 333 332 332 332 332 332 331 331 331 331 330 331 331 331 332 332 331 331 330 330 330 330 330 329 329 329 329 328 328 328 328 328 327 327 327 326 325 325 327 327 326 327 326 326 326 325 324 324
329 329 328 327 328 326 324 323 317 315 320 322 322 321 320 319 316 315 317 317 315 315 315 315 317 318 319 321 323 323 325 327 330 332 333 333 333 333 333 333 333 333 333 333 332 332 332 332 333 333 332 332 332 332 332 332 332 332 332 332 332 332 332 332 332 332 331 331 330 330 330 330 330 329 329 329 328 328 327 327 327 327 327 327 326 326 326 327 327 327 326 325 325 325 325 325 323
329 328 328 328 327 327 325 322 317 314 319 324 323 323 322 320 317 315 315 316 316 315 315 315 315 317 318 320 322 323 324 326 330 332 333 334 333 333 333 333 333 333 332 333 333 332 332 332 332 332 332 332 332 332 332 333 332 333 333 332 333 332 332 332 332 332 331 331 331 331 331 331 330 330 329 329 328 328 327 327 327 327 327 327 327 327 327 327 327 326 325 325 325 325 325 324 323
329 329 329 329 328 327 325 321 317 314 318 322 322 322 322 320 319 318 316 315 316 315 315 315 315 315 317 318 320 322 324 326 329 331 333 333 334 334 333 333 333 332 332 332 333 333 332 332 332 332 332 332 332 332 332 332 332 333 333 333 333 333 333 333 333 332 332 332 331 331 331 331 331 330 330 329 329 329 328 327 327 327 327 328 327 327 327 327 327 325 324 325 325 325 325 323 322
329 328 329 329 328 327 326 322 316 314 317 320 320 319 320 320 319 319 319 318 317 317 315 315 316 315 316 317 319 320 322 326 327 329 331 332 334 334 333 333 332 332 332 332 332 333 333 332 332 332 332 332 332 332 332 332 332 332 333 333 333 333 334 334 333 333 332 332 332 332 332 331 331 331 330 330 329 329 329 328 328 328 327 328 328 327 327 327 326 325 324 325 325 324 324 323 321
328 328 328 328 327 326 326 321 316 315 316 316 316 318 319 320 321 320 321 321 320 319 318 316 316 316 316 317 319 319 321 323 325 326 328 330 331 333 333 333 332 331 331 332 332 333 333 333 333 333 333 333 333 332 332 332 333 333 333 333 334 334 334 334 334 333 333 332 332 332 332 331 331 331 330 330 329 329 329 329 329 328 328 328 328 328 327 327 326 326 325 325 325 324 324 323 321
328 327 327 327 327 326 325 322 319 322 323 317 315 321 324 322 322 322 322 324 323 322 320 317 316 316 316 317 317 319 320 321 321 322 326 329 330 331 332 332 332 332 331 332 332 332 333 333 333 333 333 333 333 333 332 332 333 333 333 333 333 334 334 334 334 333 333 333 333 333 333 332 331 331 330 329 329 329 329 329 329 328 328 328 328 328 327 327 326 325 325 325 325 324 323 323 321
329 327 325 326 327 326 325 323 323 327 328 319 314 321 324 322 322 323 323 324 325 325 322 317 317 316 316 316 317 318 318 319 320 320 322 327 329 329 331 332 332 332 332 332 333 333 332 333 333 333 333 334 334 334 333 332 332 333 333 333 333 333 333 333 333 333 332 332 333 332 332 332 332 331 330 329 330 329 329 329 329 328 328 328 328 327 326 327 326 326 325 324 324 323 321 320 320
330 326 324 325 325 326 326 324 324 325 324 320 315 318 321 321 321 321 321 322 323 325 324 319 317 317 316 316 316 317 317 318 320 320 320 323 327 328 328 330 331 331 332 333 333 333 333 333 333 333 334 334 334 334 334 332 332 333 333 333 332 332 332 332 332 332 332 332 332 331 332 332 331 331 330 330 329 329 329 329 329 328 327 328 327 325 325 327 327 326 325 324 322 321 319 319 319
328 324 323 324 324 326 326 326 325 321 321 325 323 319 320 322 321 320 320 320 321 323 323 321 319 317 317 316 316 317 317 318 319 320 319 320 323 325 326 327 329 330 331 332 332 332 333 333 333 333 333 333 334 334 334 333 332 332 332 332 332 332 332 332 332 332 331 332 332 332 332 332 332 331 331 330 329 329 329 329 328 328 327 327 326 324 325 327 326 324 323 322 321 320 318 318 317
324 323 324 324 324 325 323 325 323 319 321 326 327 322 322 324 321 320 320 319 319 321 321 321 320 318 318 316 316 316 316 318 319 319 319 319 320 321 323 324 326 328 329 330 330 331 332 333 333 333 333 333 333 333 333 334 332 331 332 332 332 332 331 332 332 332 332 331 332 332 332 332 332 331 331 330 329 328 328 328 328 327 327 327 326 325 325 325 324 323 322 321 320 319 317 316 316
321 323 324 323 323 321 321 322 319 321 326 325 324 323 322 324 323 321 322 321 319 320 320 322 322 320 319 316 317 317 315 317 319 318 318 319 319 318 320 321 322 324 326 327 329 330 331 332 332 332 332 333 333 333 333 333 333 332 331 332 332 332 332 332 332 332 332 332 332 332 332 332 331 330 330 329 328 327 326 326 326 326 327 327 326 325 325 324 322 322 321 319 318 318 315 314 314
321 322 323 322 321 319 320 320 318 325 329 321 320 323 322 323 324 321 323 322 320 319 320 321 321 321 320 318 317 317 316 318 318 318 317 317 318 317 317 317 318 320 323 325 327 329 330 331 332 332 332 332 332 332 332 333 333 333 331 331 332 332 332 331 332 332 332 332 332 332 332 331 330 329 329 329 328 326 325 325 325 325 326 326 325 325 323 322 322 321 319 317 316 316 314 312 312
320 321 322 324 323 322 324 322 320 326 326 315 314 319 320 322 322 320 322 321 320 319 318 319 320 320 320 319 318 319 320 320 318 317 317 317 318 317 316 315 315 316 318 321 324 326 328 329 330 331 331 331 332 332 332 332 332 332 332 331 331 331 331 331 332 332 332 332 332 332 332 331 329 328 329 329 328 327 326 325 325 325 324 324 324 323 322 321 321 319 317 315 314 313 311 309 308
319 320 323 326 325 326 329 326 323 326 322 314 313 317 320 321 319 319 320 319 319 318 317 318 319 319 319 319 319 321 321 320 318 318 319 319 319 317 316 315 313 313 314 317 319 321 324 326 328 329 329 330 331 331 331 331 331 331 331 331 331 331 331 331 331 331 332 332 331 331 331 331 329 329 329 329 328 328 327 325 324 324 324 323 323 323 321 319 318 316 314 313 312 311 309 307 303
317 319 323 326 324 326 331 327 326 328 322 315 316 320 323 321 317 316 315 315 314 314 315 316 316 317 318 317 317 317 316 314 315 317 316 316 315 314 314 314 313 313 312 313 315 316 319 322 324 326 327 329 329 330 330 330 330 330 330 330 330 330 331 331 331 331 331 331 331 331 331 330 330 330 330 330 329 328 328 326 324 323 324 323 322 321 320 318 317 315 313 311 310 309 307 304 298
317 318 322 326 324 324 326 322 321 324 321 317 317 319 321 319 318 316 315 315 313 312 313 313 314 314 316 316 315 315 314 313 314 314 313 312 312 311 311 311 312 312 312 312 313 314 315 318 321 323 325 327 328 328 329 329 329 329 330 330 329 330 330 331 331 331 331 330 330 330 330 330 329 330 330 330 330 329 328 325 323 323 323 323 321 320 319 317 315 313 310 309 309 308 304 298 294
317 318 321 322 321 321 323 320 316 319 324 323 318 318 319 318 320 319 318 319 316 313 312 312 313 314 315 316 316 317 318 318 316 314 313 313 313 312 311 311 312 312 312 311 311 312 313 316 320 322 324 326 327 327 328 328 328 329 329 329 329 329 330 330 331 331 330 330 330 330 330 329 328 330 330 330 330 329 327 325 323 323 322 321 320 319 318 316 314 311 309 308 307 304 300 295 293
317 318 320 318 319 320 322 323 321 321 326 326 321 320 320 319 320 319 319 320 319 316 313 312 313 314 314 316 317 318 321 323 319 314 313 313 315 315 314 313 313 312 312 312 311 312 312 315 318 320 323 324 326 327 327 328 328 328 328 328 328 329 329 330 330 331 330 330 329 330 329 328 328 330 330 330 330 328 326 325 324 322 322 321 319 318 317 315 314 312 308 306 304 301 297 294 293
316 318 319 319 323 324 322 325 326 325 326 326 322 321 320 319 318 318 318 319 318 318 316 314 313 313 314 315 316 316 319 322 320 316 315 315 317 317 316 315 314 313 313 312 312 312 312 314 317 319 321 323 325 326 327 327 327 327 327 327 328 328 328 329 330 330 329 329 329 329 328 327 328 329 329 329 329 327 325 325 323 321 321 320 318 317 316 314 313 311 307 305 302 298 295 293 293
314 317 318 319 323 323 323 324 324 325 325 326 324 322 320 319 319 318 319 319 317 318 317 316 315 315 315 314 314 315 316 317 318 317 316 316 316 316 314 314 313 312 311 311 311 312 312 313 315 317 320 322 324 325 326 326 325 325 326 326 327 327 328 328 329 329 328 328 328 329 327 327 328 328 327 328 328 327 325 323 322 321 320 319 318 317 315 314 312 308 304 302 298 294 293 293 293
315 317 319 320 319 319 321 322 322 323 324 325 327 325 321 318 319 319 319 319 319 319 318 317 317 315 314 313 314 315 315 315 315 315 314 313 313 314 313 312 312 310 309 309 310 310 311 312 313 315 317 319 321 323 324 323 323 323 324 325 326 326 327 327 328 328 328 328 328 328 327 327 327 327 327 327 327 326 324 323 322 321 320 319 318 317 314 313 310 306 302 298 294 293 293 292 292
317 317 318 320 319 319 322 324 322 321 324 325 325 325 321 317 317 318 318 318 318 318 318 318 317 314 312 314 315 314 314 313 312 312 311 311 312 313 312 311 310 309 308 308 308 309 310 311 313 314 315 317 319 320 320 320 321 321 323 324 324 325 326 326 327 327 327 327 327 327 327 327 326 326 327 327 327 326 323 322 322 321 320 319 318 316 314 312 309 304 299 295 293 293 292 292 292
Wind_Speed
4 4 4 5 4 6 7 4 3 2 3 3 1 0 3 5 2 2 5 4 3 5 3 2 4 4 1 4 4 6 9 5 5 2 2 5 12 12 9 12 15 15 14 12 10 10 9 10 9 7 8 8 9 10 10 10 11 11 12 14 14 15 13 13 13 13 13 12 12 12 13 13 14 15 14 14 15 15 15 15 15 16 16 15 15 15 16 17 17 18 18 18 18 18 18 18 18
3 4 3 4 4 6 3 2 4 2 3 2 2 1 5 5 2 3 4 3 3 6 4 3 5 3 3 4 3 2 6 9 9 7 7 11 14 10 10 13 14 14 13 11 11 10 8 8 7 6 8 8 9 10 11 11 11 11 13 14 14 14 13 13 13 13 13 13 13 12 12 12 13 14 14 14 14 15 15 14 15 16 16 15 15 15 15 15 16 17 18 18 17 17 18 17 18
2 2 3 4 5 6 2 3 5 2 3 1 3 4 4 3 3 2 5 6 7 7 5 4 4 2 1 3 2 1 3 5 8 9 8 12 12 9 12 13 14 14 12 11 11 9 8 7 6 7 9 9 9 10 12 13 11 12 12 12 14 15 14 13 13 13 13 14 13 12 12 12 13 13 13 14 14 14 14 14 14 15 15 15 15 15 14 14 15 16 16 17 16 17 17 17 18
2 2 4 5 4 5 4 4 3 3 2 1 2 5 3 2 4 7 8 7 7 5 5 5 5 2 3 1 2 2 5 5 8 8 7 9 10 13 13 14 14 13 12 11 10 9 7 8 8 9 10 9 10 12 14 14 12 12 11 11 13 13 13 12 12 11 11 13 12 11 12 12 13 12 12 13 14 13 13 14 14 14 14 15 15 14 14 14 15 15 15 15 15 15 16 16 17
1 3 4 6 4 2 3 3 2 4 2 2 2 5 3 2 5 8 7 6 5 4 4 5 3 3 2 3 4 1 4 5 7 7 9 9 12 15 13 14 14 13 13 11 11 9 7 10 10 11 11 10 11 13 14 14 13 12 11 11 11 11 12 12 11 10 10 12 11 11 11 12 13 12 12 12 13 13 13 13 13 13 13 14 14 13 14 14 14 14 13 13 14 15 15 15 16
1 4 4 5 3 2 3 3 3 3 3 3 2 5 2 2 6 8 8 7 4 2 1 4 1 1 3 2 4 4 4 3 5 6 9 10 12 14 13 14 13 13 13 11 11 9 10 13 13 12 12 12 12 13 13 13 13 12 11 11 11 12 12 11 11 10 11 11 11 12 11 12 12 12 12 12 12 12 12 12 12 12 12 12 13 13 13 13 12 12 12 12 12 13 14 14 15
4 4 3 4 2 1 5 4 3 1 4 3 3 4 2 4 6 8 9 6 4 2 2 3 0 2 2 4 3 7 6 4 5 5 9 11 12 13 12 12 12 14 13 12 11 11 13 14 14 12 12 12 13 12 12 12 13 12 12 12 12 13 12 11 10 11 12 12 11 11 11 12 11 11 11 11 11 11 11 12 12 12 11 12 13 13 12 12 11 11 11 11 11 12 13 13 14
5 4 1 4 3 2 5 4 3 1 4 3 2 3 3 4 7 8 8 5 4 4 5 3 2 4 2 2 1 6 6 6 6 7 11 13 12 12 11 11 12 13 12 12 12 12 14 14 14 13 13 13 13 12 11 11 11 11 11 12 12 11 11 11 10 10 11 12 11 11 11 11 11 11 11 11 11 11 11 12 12 12 11 11 12 13 12 11 11 11 10 10 11 11 11 12 13
3 4 2 4 4 3 4 4 2 1 2 2 2 2 2 3 6 7 7 4 4 4 6 5 3 3 3 3 3 7 6 6 8 9 12 12 11 10 9 10 11 12 12 12 12 12 13 13 13 13 14 14 13 12 11 10 10 10 10 12 12 11 11 11 10 10 10 11 11 11 10 10 10 10 11 11 11 11 11 11 11 10 11 10 11 12 12 11 10 10 10 10 10 10 10 10 11
3 3 2 4 4 3 4 3 1 1 3 2 1 3 3 5 6 6 7 4 4 4 5 4 4 4 1 2 4 6 6 8 10 11 12 12 11 9 8 9 10 12 12 12 12 13 13 12 12 12 14 15 13 11 11 10 9 9 11 12 12 11 11 10 10 9 9 8 9 8 9 9 10 10 11 10 9 10 10 10 10 10 10 9 10 10 10 10 10 10 9 9 10 9 9 9 10
3 2 2 4 5 5 4 2 1 2 3 2 1 4 3 6 7 6 6 4 4 4 5 4 4 5 4 1 4 6 8 9 12 13 14 12 10 8 8 9 10 10 11 12 13 12 12 12 12 12 14 14 13 11 11 11 10 11 13 13 12 11 9 8 8 9 9 7 7 9 10 9 10 11 10 10 9 9 9 10 9 9 9 9 10 10 10 9 9 9 8 8 8 8 8 8 9
4 3 3 4 5 5 1 2 1 0 2 2 3 5 3 6 7 6 6 5 5 4 5 6 1 1 5 2 4 8 10 10 12 15 14 12 9 8 8 8 9 10 11 12 12 12 12 12 12 12 13 13 13 12 11 10 11 12 13 14 13 12 10 7 7 8 9 8 9 10 10 9 11 11 9 9 10 9 9 9 9 8 8 8 8 8 9 8 8 7 7 7 7 7 8 8 8
5 3 4 5 4 4 2 2 2 1 2 2 5 5 4 7 8 6 6 5 5 5 5 6 1 1 4 2 6 8 9 11 14 15 15 12 10 7 7 8 9 10 11 11 11 12 12 11 10 12 13 13 13 12 11 10 11 13 12 12 13 12 11 8 8 7 8 10 11 11 10 9 11 10 8 9 9 9 9 9 9 8 8 8 8 8 8 7 7 7 7 8 8 8 8 8 8
3 3 4 5 3 4 3 3 1 2 1 6 6 3 4 5 3 3 4 6 5 2 4 5 1 3 3 2 5 6 9 14 15 16 15 12 10 8 7 9 10 10 11 10 11 12 12 12 11 11 12 12 12 11 10 10 10 11 9 10 11 11 10 8 8 8 9 11 10 10 9 9 10 9 7 8 8 8 8 8 8 8 8 8 8 7 7 7 7 7 8 8 8 8 8 8 8
3 2 4 5 4 4 4 3 2 3 2 8 4 2 4 1 1 2 2 3 2 5 5 3 1 1 1 1 2 7 13 16 17 16 14 12 11 8 8 10 10 10 10 10 11 12 12 12 11 11 11 11 12 10 10 10 9 9 8 8 8 10 10 9 8 8 9 9 8 8 9 9 9 8 7 7 7 7 7 7 8 9 8 8 8 7 7 8 8 8 8 8 8 8 8 8 9
2 2 4 5 5 4 4 4 2 3 4 9 3 1 4 3 1 3 2 3 2 5 3 2 3 2 3 2 5 12 19 18 18 17 14 12 11 9 9 10 11 10 10 11 11 11 12 12 12 11 11 11 11 11 10 10 9 8 7 7 7 9 10 10 9 8 8 7 7 7 7 7 7 7 6 6 6 7 7 8 9 9 9 8 8 8 8 9 8 8 9 8 9 8 8 8 8
2 3 5 5 7 5 2 2 1 1 4 8 4 1 4 4 3 2 2 3 2 4 4 2 3 2 2 4 6 14 20 19 19 17 15 12 11 11 10 10 11 11 11 11 11 12 12 12 12 12 12 12 12 11 10 10 10 7 7 7 7 8 10 10 10 8 7 7 7 7 6 6 6 5 5 5 6 7 8 8 9 9 9 8 8 8 8 8 8 8 8 7 7 7 7 8 8
3 5 6 6 7 3 3 4 4 3 4 7 5 2 5 2 3 3 1 6 5 4 7 3 3 3 3 5 6 15 19 19 20 18 16 13 11 12 11 11 12 12 12 12 12 12 12 13 12 12 12 12 12 11 9 9 9 7 6 7 7 8 9 10 9 8 7 7 7 7 7 7 6 6 5 5 5 6 7 7 8 8 8 8 7 7 7 6 6 6 6 6 6 6 7 7 6
4 5 7 6 1 3 5 6 6 5 5 5 4 4 3 3 2 2 3 7 7 6 7 7 7 8 6 5 9 16 18 19 20 18 18 16 13 12 12 12 12 13 13 13 13 13 13 13 13 12 12 13 13 11 8 8 9 8 8 7 8 8 10 10 9 9 9 8 8 8 7 7 7 7 7 6 5 6 7 7 7 6 6 6 6 5 5 4 4 4 4 4 5 6 6 4 4
2 3 7 4 5 6 6 6 7 6 5 6 4 4 2 2 2 2 4 7 7 9 8 9 10 10 10 8 13 17 17 18 19 18 18 17 14 12 12 12 12 13 13 13 13 13 13 13 14 13 13 13 13 11 9 9 9 9 9 8 9 9 9 10 9 10 10 9 9 8 8 9 8 8 8 7 5 4 5 6 5 5 4 4 4 3 3 2 2 3 3 5 5 5 4 2 3
2 3 4 4 6 5 5 5 6 5 4 5 5 3 3 1 2 4 5 8 7 8 7 7 9 11 12 11 15 17 17 19 19 19 18 17 16 13 12 12 12 12 12 13 12 13 14 13 14 14 14 14 13 11 10 10 10 9 9 9 9 10 10 9 9 10 10 10 10 9 9 10 9 7 7 6 5 4 4 4 3 3 3 2 2 2 1 1 2 2 3 4 3 2 2 2 3
2 2 2 6 3 4 5 4 5 4 3 4 5 4 4 3 4 7 7 9 4 1 3 2 4 7 14 14 16 17 17 19 19 20 19 19 19 16 13 12 12 12 12 12 12 13 14 14 14 14 14 14 13 11 10 10 10 9 9 9 9 9 10 9 9 9 10 11 10 9 9 9 8 7 8 7 6 6 5 3 3 3 2 2 2 2 1 0 1 0 1 2 2 2 3 3 4
2 2 4 4 2 4 5 3 3 2 4 4 6 5 6 7 6 6 9 11 5 3 5 4 6 3 15 16 16 17 16 19 20 22 21 20 21 19 17 14 13 14 13 13 12 12 14 14 14 15 15 14 14 12 10 10 10 9 9 10 10 9 9 9 8 8 10 11 11 10 9 8 8 8 8 8 7 6 5 4 4 4 3 2 2 2 1 1 1 0 1 2 3 4 4 5 6
4 4 5 4 2 2 2 2 1 2 5 5 5 5 7 9 7 4 6 11 9 1 5 3 2 4 14 15 15 17 17 20 21 22 21 21 22 21 19 16 14 14 13 12 11 12 14 15 15 15 15 14 14 12 11 10 10 9 9 12 11 9 10 9 8 8 9 10 10 10 9 8 8 7 7 7 7 6 6 6 4 4 4 3 3 2 1 1 0 2 2 3 4 5 6 6 6
7 5 6 4 1 1 1 2 3 4 4 3 5 8 9 8 5 6 10 13 11 5 5 4 3 7 11 13 15 15 16 19 20 20 21 20 21 21 20 18 16 14 14 12 11 11 14 15 16 16 15 15 14 13 12 10 10 10 11 13 11 11 11 8 8 8 8 9 9 10 9 8 7 7 7 7 7 6 6 6 5 4 3 3 2 2 1 1 2 3 3 4 5 6 6 7 7
5 4 4 4 2 2 3 5 6 5 4 4 7 11 9 2 3 8 12 10 6 4 5 5 6 8 10 11 13 14 14 17 19 20 20 19 19 21 22 20 18 16 15 14 13 12 13 15 16 17 17 16 15 14 13 11 11 11 12 13 12 13 13 8 8 9 8 8 9 11 9 7 7 6 7 7 6 6 6 6 5 4 3 2 2 2 2 3 3 4 4 5 6 7 7 7 7
2 2 1 3 4 5 5 6 8 7 6 6 8 11 9 0 1 7 3 2 3 5 6 7 8 9 10 10 11 13 14 16 19 18 18 18 18 21 22 22 20 18 17 16 15 13 12 14 16 17 17 18 17 15 14 12 11 11 12 13 13 14 14 10 9 8 8 8 9 11 10 7 6 6 6 6 6 6 5 5 4 3 3 2 3 3 4 4 4 4 5 6 7 8 8 8 8
4 2 2 5 7 8 8 9 10 7 4 3 5 12 13 4 5 10 4 4 4 6 8 9 9 9 9 10 10 11 13 15 17 17 18 19 19 21 22 23 22 20 18 17 17 15 14 14 15 17 17 19 18 16 15 14 12 12 13 13 13 15 16 13 11 9 9 9 9 12 11 8 7 6 7 7 6 6 5 4 4 3 3 4 4 4 4 5 5 6 6 6 7 7 7 7 7
3 1 4 7 8 10 12 11 6 3 3 1 3 11 14 10 11 13 7 6 6 6 8 8 9 9 8 10 9 9 11 14 16 17 18 19 19 20 21 23 22 21 20 18 17 17 16 14 15 16 17 19 19 16 15 15 14 14 15 14 13 15 16 15 14 11 10 10 11 14 12 8 8 7 7 7 6 5 5 5 4 4 4 4 4 5 6 6 6 7 6 6 6 6 7 6 5
3 1 4 6 7 11 12 9 3 2 4 3 2 8 10 10 13 12 7 7 7 6 8 8 8 8 8 9 8 9 11 14 16 17 18 18 19 19 21 22 22 21 20 19 19 19 18 16 15 15 16 19 20 17 15 16 16 16 17 16 15 16 17 16 15 12 10 10 11 14 13 10 10 8 8 7 6 6 5 5 5 5 5 5 5 6 6 6 6 6 5 5 6 6 5 5 4
5 2 2 5 7 8 5 3 2 3 2 4 6 8 8 10 6 7 6 6 8 7 8 8 8 8 8 8 9 9 11 14 16 17 18 18 19 19 20 22 23 23 21 20 20 20 19 19 16 15 16 18 20 19 15 16 18 18 18 17 17 17 17 16 15 13 11 11 11 13 14 12 11 9 8 8 7 7 6 6 6 6 6 6 6 6 6 6 5 4 4 4 5 5 4 3 3
6 4 4 6 7 6 5 4 3 4 2 5 8 7 7 10 3 6 3 4 6 7 8 8 9 9 9 8 9 9 9 13 15 17 18 18 19 19 20 22 23 24 23 21 20 21 21 20 18 16 16 16 19 21 18 16 17 18 18 17 17 17 16 14 13 13 12 12 11 12 14 14 12 10 9 9 8 8 7 8 8 7 6 6 6 6 4 4 4 3 3 3 4 4 3 3 4
7 7 7 7 8 7 4 3 3 4 3 7 11 7 5 6 2 5 4 3 5 7 8 8 9 9 9 8 8 8 8 11 13 16 19 20 20 19 20 21 23 24 24 22 20 22 22 21 20 18 17 16 17 20 20 18 17 19 19 17 16 17 17 14 12 13 12 13 12 12 13 14 13 11 10 10 9 9 8 8 8 7 7 6 6 5 4 4 3 3 3 3 3 4 4 4 5
8 8 7 8 10 8 5 3 2 2 5 8 11 10 9 8 7 4 3 4 5 7 8 8 7 7 8 7 7 8 9 10 12 17 20 21 20 20 19 20 22 23 23 23 21 21 22 22 21 19 17 17 16 17 19 19 18 18 17 15 15 16 16 14 12 12 12 13 13 13 13 13 13 12 11 10 10 10 9 9 9 8 8 7 6 5 5 5 4 3 4 4 3 3 4 4 5
9 9 8 8 9 8 6 4 3 3 5 8 10 12 12 12 12 13 9 7 7 8 8 8 8 8 8 8 8 9 10 11 12 16 21 21 20 20 19 19 21 22 22 23 22 22 22 22 22 20 18 18 16 15 16 17 16 16 15 14 14 15 15 14 14 13 13 13 13 14 14 14 14 13 12 11 11 10 10 10 9 9 9 8 7 6 6 6 6 6 6 5 3 2 3 3 4
12 11 10 9 9 7 7 5 3 2 5 8 11 13 13 12 12 14 13 9 9 10 9 9 9 8 8 8 9 9 11 11 12 15 18 20 20 20 20 19 20 21 22 22 23 23 23 23 23 22 20 19 18 17 17 17 16 15 15 14 15 15 15 15 15 15 15 15 15 14 15 15 15 14 14 12 11 11 10 10 10 10 10 9 8 8 7 7 6 6 6 5 3 3 4 3 3
12 12 12 11 10 7 7 6 5 3 4 9 12 14 15 14 13 13 13 10 9 10 11 11 10 9 9 9 10 11 11 10 10 13 16 20 21 20 20 20 19 21 22 22 24 25 25 24 25 24 23 21 21 20 19 19 19 18 17 17 17 17 17 16 17 17 16 16 16 15 16 16 16 15 15 13 12 11 10 11 11 10 10 10 10 9 8 7 5 4 5 4 4 4 4 3 2
12 13 11 11 11 9 5 4 6 6 4 8 11 15 16 14 14 13 12 12 11 11 12 12 13 12 10 11 12 11 9 8 9 12 15 18 20 21 21 20 21 22 23 24 24 25 25 25 25 25 24 23 22 22 22 22 20 19 19 18 18 18 18 18 18 18 17 17 17 17 17 17 17 17 16 15 14 13 11 11 11 11 11 11 11 9 8 7 5 5 6 5 5 5 4 3 1
12 10 9 8 9 8 5 5 8 6 4 6 9 12 14 15 16 15 14 14 12 12 13 12 13 12 11 11 11 10 9 9 11 12 15 18 20 22 22 21 22 23 23 24 24 24 26 26 27 26 25 25 23 23 24 23 21 20 19 18 19 18 18 19 19 18 18 18 19 19 19 19 19 18 17 17 16 15 14 13 12 11 12 12 11 10 9 8 6 6 7 7 6 4 4 4 1
11 9 8 8 8 7 6 5 8 7 6 6 9 10 12 14 15 16 16 16 15 13 14 13 12 12 12 12 10 10 11 11 12 13 15 18 20 21 22 22 22 23 22 24 25 25 26 28 28 27 26 26 25 24 25 23 21 21 19 18 19 19 18 19 20 20 20 20 20 20 20 20 20 18 18 18 18 17 16 15 13 12 12 12 11 11 11 10 8 7 7 7 6 5 5 4 2
10 10 10 9 9 9 6 2 5 6 8 8 9 9 10 12 15 16 15 16 18 17 16 15 13 13 12 11 10 10 12 12 12 13 14 17 20 22 24 24 23 24 24 26 27 27 27 28 28 27 26 26 25 25 25 22 20 21 19 18 20 20 19 19 20 22 23 22 21 21 21 21 21 20 18 19 19 18 17 16 14 13 13 13 12 11 12 11 9 8 8 8 8 6 5 4 2
9 10 11 10 10 9 7 3 2 4 6 6 7 7 6 6 12 13 11 14 18 18 17 18 15 13 12 11 11 11 11 11 11 12 13 16 19 21 23 24 24 25 27 28 29 29 29 28 27 27 25 25 25 25 25 23 21 23 22 22 23 23 21 20 20 22 22 22 21 18 18 20 22 21 19 19 19 18 18 17 15 14 13 14 13 10 11 11 10 9 9 8 8 6 4 5 4
9 7 10 13 11 8 7 5 3 4 5 2 5 7 6 5 8 10 8 11 17 18 18 17 14 13 12 11 11 11 11 11 10 11 11 14 17 19 21 24 26 27 28 28 29 30 30 28 27 28 26 25 25 25 26 24 22 24 25 24 25 25 24 22 20 21 20 20 19 15 16 18 20 21 20 19 19 19 19 18 16 14 13 13 14 13 11 12 12 12 11 9 8 6 4 6 7
7 6 8 12 11 9 7 5 5 5 6 3 6 8 7 9 8 7 9 10 13 16 17 15 14 14 13 12 12 12 12 11 10 10 11 13 16 19 22 24 27 29 28 27 28 29 30 29 29 29 28 26 25 25 27 26 24 25 26 26 27 27 26 23 21 21 21 20 18 17 19 20 20 21 21 20 19 19 19 17 15 15 14 14 16 15 15 15 15 15 14 11 8 6 5 6 7
4 6 6 9 9 8 6 7 7 3 4 7 8 6 6 8 5 4 9 12 12 14 15 14 14 15 15 14 13 13 13 12 12 11 12 14 17 20 22 23 26 28 26 27 30 29 28 29 28 28 28 28 27 27 28 28 26 25 26 27 28 27 25 23 20 21 22 21 21 20 21 21 20 20 22 21 17 17 19 19 17 17 15 15 17 17 17 16 16 16 13 10 7 6 7 7 8
4 6 5 4 6 5 4 6 4 1 4 8 7 6 6 8 6 6 8 9 11 11 12 13 13 14 14 14 13 12 11 11 11 12 12 14 18 20 21 21 22 23 26 28 28 27 26 26 27 28 28 28 27 28 30 29 28 26 25 27 27 26 24 23 21 21 22 22 23 23 22 21 21 21 21 19 17 16 18 19 19 18 16 17 19 18 17 15 15 14 10 8 8 7 9 10 9
10 8 7 5 3 2 1 3 1 2 7 6 8 11 8 7 5 6 7 7 8 9 9 11 13 14 14 13 12 11 10 9 10 10 11 13 15 17 17 18 19 20 25 27 26 26 26 25 27 29 29 27 26 28 30 30 30 28 26 26 26 26 25 24 23 23 24 24 24 24 23 23 23 22 19 17 17 17 17 18 18 18 17 18 19 18 17 16 14 12 10 9 9 9 10 12 12
11 7 8 7 2 2 1 3 3 6 6 1 4 9 9 9 4 2 5 5 6 8 9 10 12 13 12 11 11 11 10 9 8 8 9 10 11 12 15 18 18 18 22 26 27 27 26 26 27 27 28 28 26 27 29 30 31 31 29 27 26 27 26 25 25 24 25 26 25 24 24 24 22 21 22 21 21 20 19 18 18 18 17 16 18 17 15 16 15 14 13 11 9 10 13 15 17
8 7 9 7 4 4 4 4 4 7 5 2 1 4 8 11 8 8 11 10 8 9 9 10 11 13 12 9 10 10 8 7 7 7 8 8 8 11 14 17 18 19 22 25 26 25 25 25 26 27 28 29 27 27 29 30 31 31 31 29 26 27 28 27 26 24 24 26 26 25 26 27 24 24 26 26 26 24 22 20 20 21 19 16 19 19 16 16 15 12 10 10 10 13 16 17 18
9 10 10 8 6 5 7 6 4 6 4 5 5 3 7 9 6 10 13 11 10 10 11 12 11 11 9 5 4 4 2 3 4 5 5 6 5 6 9 11 15 19 21 22 25 26 26 25 25 27 28 28 28 28 28 29 31 31 31 30 27 27 28 28 27 26 25 27 28 26 28 31 30 29 29 28 27 27 26 24 23 24 23 21 22 21 18 14 13 11 10 11 13 14 15 17 19
9 8 7 8 6 5 6 5 6 6 2 6 8 4 5 4 2 1 4 3 5 7 9 10 8 7 6 4 3 3 3 3 3 3 4 4 3 2 3 5 9 14 17 18 21 25 26 25 27 28 28 27 29 30 29 29 30 30 30 30 29 28 28 28 28 27 26 28 28 27 29 32 34 33 30 29 29 29 29 27 24 25 26 25 23 21 19 15 14 14 12 13 16 16 18 20 21
4 3 6 7 5 5 4 1 3 3 1 4 7 4 5 3 4 6 7 6 6 6 8 9 9 8 7 6 6 5 5 4 3 3 4 4 4 4 6 8 9 11 15 18 21 24 27 27 27 28 28 27 28 30 30 29 28 27 28 30 30 29 29 27 27 28 29 28 27 29 28 28 33 34 31 31 31 30 30 28 26 27 27 26 23 20 19 16 15 16 15 17 21 22 22 22 21
4 4 6 3 1 3 5 1 2 1 5 5 6 6 7 6 9 10 12 13 10 8 8 9 11 12 10 8 7 6 5 4 4 4 4 5 6 7 10 11 12 12 13 17 21 23 26 25 23 24 24 24 26 29 28 27 27 27 27 29 29 29 29 28 27 29 31 29 27 29 27 24 30 35 33 34 34 32 33 30 28 29 28 26 23 20 18 17 17 19 20 23 25 24 24 23 21
8 7 7 5 4 3 4 4 3 3 7 6 7 9 8 6 6 3 8 13 11 9 9 8 9 10 10 10 9 7 4 4 5 6 6 6 6 8 10 11 12 12 13 14 17 19 22 22 21 21 22 23 25 26 26 26 26 27 27 28 29 29 29 29 28 30 32 29 27 29 27 23 28 34 34 34 35 34 35 32 29 30 30 27 23 20 19 19 20 21 22 24 25 25 25 23 22
3 5 9 7 3 5 5 5 5 6 7 5 6 10 8 8 7 3 6 8 6 7 9 9 9 9 9 9 8 6 2 3 4 6 6 6 6 7 9 9 9 10 11 11 12 14 17 19 18 19 20 21 21 21 23 24 24 26 27 26 28 29 29 29 29 31 31 29 29 30 28 26 28 32 34 35 35 36 36 33 30 32 31 28 24 21 20 21 22 22 23 25 26 26 26 24 22
1 3 8 7 5 5 7 6 3 4 6 5 5 7 7 8 10 10 12 10 7 9 8 8 11 10 6 5 4 3 1 2 2 2 3 3 4 5 6 7 8 9 10 10 10 10 12 14 14 16 16 16 17 18 20 22 22 22 24 26 28 30 30 30 31 31 31 30 30 31 30 29 28 31 34 35 35 37 37 35 33 34 32 29 25 22 22 23 24 24 25 27 28 27 26 24 23
5 6 10 9 4 1 3 5 4 3 5 5 6 7 6 3 6 9 12 11 11 11 9 8 7 4 1 0 1 1 2 2 2 2 2 2 2 4 4 4 5 6 7 8 8 7 8 10 12 14 14 14 15 16 18 21 21 21 24 28 30 31 32 31 31 31 31 30 31 32 30 29 29 31 34 35 36 37 38 37 35 35 33 29 25 23 24 25 26 26 27 29 28 27 26 24 22
9 7 8 9 7 4 3 6 6 5 5 5 5 8 6 2 4 5 7 8 9 8 8 7 4 1 1 1 1 0 2 2 3 3 3 3 3 3 3 3 3 3 3 5 6 6 6 9 10 11 13 15 15 16 17 20 20 22 25 28 29 30 31 30 30 31 31 29 29 31 31 29 30 32 34 35 37 38 39 38 36 35 33 29 25 24 26 27 28 28 29 29 28 27 26 24 22
Wind_Direction
347 336 332 299 275 276 266 255 255 196 249 269 62 47 112 80 58 169 145 145 158 113 69 80 103 84 69 344 16 38 30 39 24 20 104 110 140 138 131 132 133 135 136 131 129 131 127 134 139 139 130 121 123 121 121 115 105 99 90 84 88 95 96 96 91 90 93 94 94 91 91 91 92 93 96 97 94 94 89 86 85 83 82 86 88 85 83 82 83 84 83 84 84 82 80 77 75
338 334 323 282 255 266 280 250 268 196 234 235 111 43 93 110 201 199 146 125 81 102 116 120 121 80 3 336 320 64 51 39 46 71 94 128 138 126 131 136 135 137 137 135 135 134 133 139 143 148 139 130 130 129 124 114 105 97 93 93 95 96 98 100 97 96 97 96 96 94 92 94 96 95 96 98 97 94 90 90 88 84 82 87 90 87 85 85 85 83 82 80 80 79 78 75 74
302 305 269 266 244 249 279 242 263 255 253 258 106 91 108 161 190 115 86 78 79 109 128 116 133 102 315 205 225 19 76 52 72 86 106 144 143 130 138 136 136 136 136 140 139 137 138 154 163 154 144 139 136 131 122 112 103 98 100 99 100 101 97 99 100 98 98 99 98 94 93 94 95 95 98 100 100 96 93 91 86 86 86 86 87 87 89 91 87 81 79 78 77 76 75 73 71
286 263 256 272 251 235 256 241 265 284 267 356 85 108 145 199 126 91 81 83 94 130 138 150 158 90 308 292 38 60 95 77 81 93 129 154 138 135 140 136 137 134 136 142 143 140 142 166 167 150 144 142 137 130 122 116 113 109 108 103 103 108 106 104 103 102 97 97 97 93 93 93 95 97 100 100 101 101 97 91 86 85 84 83 86 88 89 91 89 82 77 75 76 75 72 71 68
302 261 258 276 276 268 278 269 267 268 320 23 37 103 152 195 114 104 100 97 104 140 148 186 171 97 270 353 356 1 94 91 88 102 134 127 119 135 142 137 138 135 139 140 144 145 147 162 156 150 145 143 140 131 124 121 122 118 111 108 105 108 114 110 104 106 97 93 99 97 94 95 96 97 100 102 103 102 100 94 88 85 85 85 86 88 86 86 87 83 78 73 75 75 72 71 67
293 259 240 256 284 338 270 257 237 229 45 9 359 73 131 165 122 121 118 107 107 104 161 208 190 114 189 78 34 37 49 93 103 115 132 123 126 139 140 140 141 137 139 140 144 145 150 155 152 150 146 144 141 130 126 124 126 120 114 111 107 110 116 113 104 103 98 98 107 107 106 106 103 101 102 105 106 104 101 98 94 90 90 91 89 88 87 86 85 82 78 74 76 76 73 71 67
282 266 220 236 224 253 261 257 257 203 72 12 0 50 95 143 128 135 139 134 141 138 208 216 278 245 160 116 98 73 51 48 95 120 122 128 136 138 140 142 139 137 138 139 140 143 152 152 149 148 145 143 135 130 128 127 128 124 120 113 110 114 117 115 112 109 110 114 114 109 109 109 108 108 104 103 108 108 103 102 100 92 88 89 90 90 89 90 87 84 80 76 78 77 75 70 66
274 278 250 268 236 206 263 271 272 348 75 41 25 41 48 134 145 154 163 162 164 161 187 182 235 250 132 137 138 98 85 67 96 114 119 132 137 138 143 142 137 137 135 137 138 144 152 149 149 148 144 139 133 135 132 129 129 125 126 120 116 117 115 114 114 116 119 119 111 103 100 101 105 107 103 99 101 103 101 105 104 94 89 88 90 92 91 91 89 87 83 80 79 77 74 69 64
249 255 249 266 259 228 253 265 255 334 92 85 82 95 60 158 170 170 173 161 152 164 176 171 208 248 111 150 120 111 115 102 121 126 131 137 137 140 142 142 138 136 135 135 135 141 150 148 149 148 144 140 138 140 135 133 128 125 131 127 124 123 124 121 114 114 113 111 106 103 101 98 99 100 99 97 94 96 101 103 102 95 91 88 89 92 92 91 90 88 85 82 79 78 74 68 61
226 234 267 266 262 257 241 239 196 146 108 90 68 127 148 180 186 184 180 159 155 168 145 143 208 243 312 143 116 112 114 124 141 138 142 140 136 141 137 140 136 136 137 135 136 140 150 150 149 147 145 144 143 143 138 136 127 126 126 124 130 131 133 133 128 120 114 113 111 114 113 103 98 98 96 99 101 103 108 109 109 103 97 93 91 89 89 90 91 89 85 84 80 78 74 65 59
228 196 268 276 250 250 248 234 172 151 113 120 143 129 158 181 188 192 182 159 166 172 134 160 211 221 243 154 102 106 115 137 150 145 147 143 137 139 134 136 137 138 138 136 137 138 146 151 151 148 147 147 146 146 142 138 131 129 128 131 139 140 136 140 145 135 128 125 118 122 122 111 106 105 102 107 108 104 103 107 113 110 103 100 94 89 90 92 94 92 86 85 82 78 71 63 56
240 199 213 252 253 253 288 325 294 113 152 189 140 124 160 180 185 190 186 169 176 194 167 186 206 188 218 187 110 118 130 151 155 151 147 143 141 139 136 135 139 140 141 141 137 136 143 150 151 150 152 150 147 149 148 143 138 138 143 149 150 144 140 140 146 140 135 133 126 123 121 120 118 117 117 118 112 103 99 101 106 106 103 101 96 93 93 94 96 93 85 78 75 74 67 62 55
240 228 221 240 261 274 325 302 298 304 236 148 94 104 162 180 190 192 190 182 184 207 172 164 97 273 234 125 118 128 143 159 155 152 147 145 145 139 136 137 141 143 146 147 143 142 142 146 151 155 155 151 151 153 152 148 147 152 154 157 157 151 147 143 140 143 141 137 132 122 115 121 129 129 128 127 122 116 114 108 108 108 107 109 106 105 106 106 102 88 74 67 64 67 64 59 55
254 239 247 249 255 269 270 271 272 236 203 74 69 98 164 180 207 211 203 200 181 150 107 121 165 246 239 147 150 149 150 158 155 152 150 144 141 141 139 140 144 147 152 152 151 148 146 148 154 160 156 152 154 155 155 152 156 162 155 155 164 162 161 156 143 144 140 134 131 122 114 116 127 132 127 131 133 128 124 116 113 111 110 116 112 108 111 104 91 77 67 64 62 62 61 58 55
280 243 252 256 251 246 228 253 305 247 70 61 44 79 168 159 351 254 249 232 108 86 99 114 208 270 243 205 143 138 147 155 154 151 149 142 139 144 141 145 149 151 158 158 157 155 152 152 154 159 156 155 155 154 159 159 162 166 159 155 168 172 173 171 156 147 139 132 127 124 121 119 124 128 123 124 132 136 135 127 119 112 107 110 106 101 99 90 81 76 69 65 64 60 60 56 52
292 260 241 250 249 236 194 204 229 241 54 60 46 41 200 168 114 246 351 343 70 117 174 160 183 290 348 23 65 125 144 153 154 151 146 142 143 147 147 153 156 156 162 162 162 161 157 155 156 160 160 160 158 156 161 168 171 170 167 162 168 176 180 183 175 159 149 142 136 134 130 128 125 121 120 111 114 123 123 121 118 112 108 107 103 99 92 86 82 77 73 67 65 61 58 53 46
281 243 233 240 235 224 162 175 170 248 46 57 69 49 238 172 151 227 21 286 246 152 198 159 153 253 18 69 91 131 145 151 154 154 148 150 154 155 160 162 162 163 167 170 168 165 163 160 159 162 163 163 161 158 160 174 178 174 176 172 170 174 179 186 184 175 167 160 154 143 131 134 130 123 127 112 109 115 113 115 114 108 107 105 99 96 89 84 82 75 72 65 60 55 52 44 33
227 217 224 239 234 220 60 51 29 347 23 33 43 31 275 231 139 165 183 234 225 187 198 183 171 197 112 95 132 141 148 157 158 159 156 162 168 162 168 168 170 171 171 175 174 172 168 166 164 164 166 166 164 158 158 174 174 168 175 175 173 175 180 184 182 181 176 174 169 150 145 152 147 146 147 129 124 122 119 119 116 112 109 106 100 96 90 83 78 71 65 56 52 45 45 36 14
235 218 220 235 220 79 56 53 39 16 8 357 22 44 297 307 21 141 227 235 202 217 212 196 205 196 162 138 157 149 154 166 165 166 165 171 176 169 172 171 175 175 174 178 176 177 174 170 170 167 167 168 167 163 162 170 167 166 170 171 172 175 180 180 177 180 178 179 175 161 165 167 160 171 171 155 148 132 128 132 127 125 120 112 106 98 91 83 71 62 53 44 44 40 41 30 5
252 244 231 201 107 96 67 52 48 28 359 340 6 29 305 285 322 168 248 263 220 231 226 202 213 200 180 164 164 158 162 173 173 174 174 178 181 178 177 174 181 179 176 180 178 179 177 174 173 171 170 168 170 170 170 171 172 173 173 174 173 172 177 178 181 183 183 184 177 171 176 171 167 184 181 158 143 135 139 141 134 133 128 121 116 100 81 66 53 44 37 37 39 36 35 20 17
199 233 238 129 128 117 75 55 44 24 2 340 339 328 300 14 270 241 249 264 241 241 239 214 222 200 175 166 169 165 168 177 181 183 182 185 187 189 186 178 184 181 176 181 181 180 179 177 174 174 173 172 174 175 176 176 177 179 179 179 174 176 180 183 186 186 188 186 181 178 181 174 169 179 177 159 150 161 162 147 141 140 136 143 129 100 74 23 24 17 19 35 31 18 17 13 5
220 208 99 102 145 121 93 74 48 8 357 333 325 330 332 344 258 243 240 253 256 342 348 314 276 198 168 166 171 168 174 182 187 190 188 190 192 194 193 185 187 186 183 185 185 182 181 179 176 176 176 176 178 179 181 181 181 182 183 181 176 181 183 185 188 187 189 186 184 185 182 177 170 174 178 172 172 173 169 160 165 166 155 162 141 118 144 123 81 340 352 22 8 351 348 341 339
259 196 123 112 92 99 101 68 62 349 350 355 342 340 319 297 269 251 236 248 267 51 43 15 343 185 163 165 170 172 181 185 190 194 193 195 196 197 196 191 191 191 191 191 187 182 182 181 178 177 178 179 181 184 185 184 187 184 185 185 180 184 185 186 187 187 190 186 187 186 179 176 172 175 180 179 177 172 171 171 174 170 152 151 152 141 151 118 104 297 336 343 335 336 330 325 330
274 201 159 144 85 93 101 48 37 317 333 348 336 313 294 281 285 298 245 252 264 203 97 75 357 157 161 167 173 178 185 187 192 196 197 200 201 201 199 196 195 195 194 192 189 185 183 181 179 179 180 181 183 187 187 188 190 184 190 189 183 186 184 184 185 185 189 186 186 183 178 177 173 173 176 180 178 173 176 171 165 165 153 159 165 154 162 161 230 305 320 318 321 323 317 319 322
270 210 164 165 161 216 316 313 291 298 302 327 312 295 291 282 305 303 261 257 258 213 129 125 149 161 170 179 180 183 187 189 192 194 197 202 204 204 203 203 199 199 199 194 192 191 186 181 180 181 181 182 184 189 190 192 192 188 194 191 189 191 182 180 188 184 184 184 185 182 178 176 173 174 176 179 178 174 179 172 162 162 160 170 173 172 215 239 278 297 301 305 312 314 313 316 319
254 210 161 180 211 249 289 288 283 295 288 295 297 296 298 310 340 283 254 253 244 180 164 172 169 174 184 189 187 188 189 191 193 193 195 198 201 205 206 207 205 206 207 202 197 194 188 183 182 183 183 184 185 190 192 194 193 193 197 191 192 192 179 180 191 184 181 183 187 184 175 174 176 177 178 177 177 174 177 172 163 164 165 177 196 223 250 267 278 286 294 299 305 307 308 310 314
115 139 162 228 268 275 272 277 278 286 281 276 282 294 297 177 243 262 230 130 171 176 198 192 183 189 189 191 190 193 195 193 195 194 194 195 199 204 207 208 209 209 211 209 204 200 192 187 186 184 185 187 185 190 192 194 196 195 198 193 194 194 184 185 189 186 190 186 190 188 176 175 180 181 180 178 178 174 175 173 168 177 186 205 231 251 259 269 275 286 294 296 302 306 306 306 309
112 147 247 246 266 267 258 267 273 275 266 267 288 293 286 246 215 247 219 129 171 197 204 191 194 199 189 191 189 194 201 198 196 195 195 196 198 202 204 207 209 209 210 210 207 205 199 192 191 187 187 191 188 189 193 194 196 196 197 195 197 199 193 193 190 190 196 191 194 194 183 180 186 185 185 180 180 180 180 183 189 205 220 231 243 253 259 269 276 284 291 292 301 307 308 309 309
145 191 253 252 270 265 257 262 267 271 259 232 318 294 274 239 226 239 214 156 176 203 204 194 200 205 194 192 188 193 201 199 197 199 200 199 199 200 202 204 206 208 208 208 208 208 205 198 196 191 191 197 193 189 194 195 196 200 200 196 198 202 201 200 196 193 196 195 199 196 185 185 192 191 191 187 183 186 191 201 213 225 233 239 249 260 265 272 278 284 290 292 300 309 311 313 313
167 156 256 251 267 262 254 253 232 258 260 166 230 279 266 247 232 217 178 154 177 198 204 200 198 201 198 192 191 195 197 199 200 201 203 201 200 200 203 203 203 208 209 208 208 207 207 204 200 195 194 202 201 191 194 200 201 205 205 200 203 206 205 207 204 199 198 197 203 200 191 191 196 193 195 194 191 195 203 214 223 232 241 246 255 268 273 273 278 282 286 295 304 308 311 318 321
178 138 247 237 251 248 221 202 191 233 236 160 212 252 262 271 244 164 147 172 188 207 208 199 195 196 197 194 195 199 198 201 202 203 204 203 201 200 202 202 202 207 209 208 208 205 205 205 202 200 197 204 207 198 194 204 206 209 209 206 210 212 209 211 209 205 204 200 203 207 202 198 198 196 196 196 199 205 211 220 228 239 245 248 260 272 277 271 269 277 288 300 306 309 314 324 322
188 183 217 215 235 234 176 161 205 230 201 172 214 248 260 263 264 103 113 212 209 230 222 200 197 195 195 197 199 202 201 201 203 205 205 204 204 200 201 202 201 205 207 208 208 205 204 204 203 203 199 202 210 206 201 202 207 211 212 211 213 215 211 209 210 207 206 205 202 207 208 204 198 197 197 198 204 210 219 231 235 241 238 240 259 266 265 261 261 278 292 296 304 312 317 320 322
197 212 222 201 209 223 208 174 197 231 226 200 216 251 269 247 233 101 126 220 231 246 243 218 203 198 199 198 200 204 200 197 201 205 204 203 204 203 201 202 202 204 206 207 207 207 206 204 205 205 203 203 209 212 209 206 210 215 215 213 215 216 213 206 208 209 207 207 204 203 207 204 198 198 201 203 210 218 226 234 236 235 227 232 253 253 242 244 253 274 284 279 289 305 312 324 333
200 212 225 211 207 218 216 162 134 221 237 227 222 240 256 259 276 271 183 183 224 250 255 243 214 203 205 200 203 205 202 200 200 204 203 201 202 202 202 202 203 204 206 208 208 208 207 205 207 208 205 204 206 212 214 212 213 217 215 213 212 213 212 207 207 209 207 207 206 204 205 202 200 202 204 207 215 224 229 231 234 232 223 228 241 239 237 237 238 258 277 277 270 290 313 332 334
194 200 213 215 209 216 222 180 131 189 231 245 238 241 249 252 263 271 256 202 218 250 255 254 237 216 207 202 209 208 207 209 205 204 201 199 199 199 201 202 202 204 206 208 208 208 208 206 208 211 209 206 207 208 212 213 212 214 213 210 210 210 211 209 210 212 211 210 209 206 205 203 205 207 209 213 218 225 229 229 231 228 222 225 231 232 232 232 237 250 263 268 264 268 286 313 317
199 203 214 214 208 216 226 207 148 170 243 254 251 256 259 255 248 256 257 222 219 249 251 252 248 230 215 207 211 212 214 215 209 204 197 195 196 196 199 200 201 203 205 207 208 208 208 207 208 211 211 207 207 206 206 209 209 208 209 209 211 213 214 213 213 215 216 217 213 209 206 206 209 211 211 214 217 221 226 226 226 227 225 224 228 230 228 229 239 249 251 252 252 263 278 296 307
205 212 223 224 228 226 210 195 155 142 250 255 254 259 262 264 259 252 251 229 215 239 245 244 245 236 224 214 213 213 215 213 206 199 192 192 195 194 196 198 199 202 204 206 207 208 208 208 207 210 211 207 206 205 202 203 205 206 207 210 212 215 216 215 215 217 218 220 218 214 212 209 210 211 211 213 216 218 222 225 225 224 223 223 227 229 230 233 237 242 235 231 238 252 269 276 290
211 220 225 227 237 239 220 178 152 151 226 256 256 261 260 260 261 257 253 239 227 234 241 243 243 239 229 220 217 214 211 202 195 191 188 190 193 193 194 196 198 199 203 205 206 207 208 209 209 209 208 207 206 205 202 202 204 204 205 207 209 212 214 214 216 218 220 222 221 218 216 214 213 212 213 215 217 217 220 224 224 224 222 221 226 227 231 240 240 241 231 225 246 254 244 220 239
216 224 224 229 235 241 242 180 158 164 210 259 261 262 263 260 257 254 250 247 242 236 237 242 243 242 236 226 220 211 203 199 197 189 186 189 192 192 193 195 198 199 202 205 206 206 207 209 210 209 207 205 206 206 204 205 205 204 204 206 207 210 214 216 219 222 223 223 222 221 219 218 217 215 216 217 217 218 221 222 222 224 225 224 226 225 233 242 234 233 230 228 238 234 217 216 213
218 222 219 231 231 235 246 184 169 184 209 262 279 274 269 265 260 252 243 244 249 242 235 237 237 239 240 234 227 213 203 203 203 194 188 190 191 192 196 197 198 199 201 203 205 206 207 210 210 209 208 206 206 206 206 206 209 209 209 211 211 213 218 221 223 225 225 224 223 222 220 219 219 218 218 218 216 218 220 222 224 224 225 227 228 227 234 237 220 215 226 222 210 199 199 210 222
215 222 221 230 231 234 250 180 168 208 225 240 265 280 270 254 248 245 235 229 238 243 237 232 228 228 235 236 231 222 213 210 207 202 193 188 190 194 198 198 197 199 202 203 204 205 207 209 210 209 209 208 207 208 207 205 206 208 209 213 214 217 220 220 221 223 223 222 221 220 219 218 218 218 219 219 217 218 221 223 226 226 227 229 228 231 235 227 208 207 220 210 200 215 222 193 188
215 219 223 236 244 239 238 231 216 263 255 212 218 268 275 240 239 242 235 220 226 234 232 227 223 218 220 225 225 222 222 220 218 214 197 187 191 194 196 198 199 201 203 204 203 205 207 208 208 207 208 209 208 208 206 203 202 204 205 207 211 214 216 216 218 219 219 219 218 218 218 216 216 216 217 219 219 220 223 226 227 227 229 230 227 227 228 217 206 208 209 200 198 219 241 217 215
226 200 203 226 243 243 232 237 232 265 291 148 185 254 282 285 267 255 248 235 227 227 224 219 218 216 212 214 217 216 220 220 222 222 206 193 191 191 196 199 199 203 205 202 203 205 206 206 206 206 206 208 208 205 204 203 204 205 206 208 211 213 215 216 217 217 217 216 216 216 216 216 214 214 215 218 220 220 222 224 224 224 225 229 225 219 225 227 221 218 208 196 196 199 219 232 224
225 157 182 213 226 233 230 238 240 262 311 300 217 237 273 283 275 247 239 244 239 230 223 214 213 217 213 210 210 210 214 212 212 215 209 203 196 193 198 199 201 206 204 199 201 204 204 205 205 204 206 208 207 204 203 204 204 207 209 212 214 215 216 216 214 215 217 216 216 216 217 216 213 214 216 218 219 220 222 220 219 222 221 223 224 223 235 239 225 212 201 193 193 196 212 227 212
200 135 188 209 213 231 238 241 249 296 327 274 234 219 253 267 261 217 219 233 241 236 231 226 220 218 215 212 209 205 209 209 208 209 207 206 203 200 202 202 204 207 203 201 204 204 202 203 203 203 206 207 206 204 204 204 204 207 210 213 216 216 217 217 213 212 214 214 216 216 215 215 213 213 215 215 215 218 223 222 221 225 221 221 229 231 235 235 218 202 190 187 193 202 217 215 198
151 137 179 190 206 230 248 239 245 342 275 257 238 215 248 274 259 227 220 228 236 235 235 234 229 223 215 209 209 206 206 209 210 212 211 207 205 205 204 203 205 206 207 207 206 204 201 201 203 205 206 206 205 207 207 206 204 206 211 213 214 215 215 214 211 210 209 211 214 215 213 212 210 208 207 208 210 214 221 223 224 229 227 228 234 232 225 217 206 198 186 186 197 204 213 204 189
129 137 147 127 168 172 208 232 179 255 253 245 225 219 242 281 256 218 227 228 224 227 231 233 232 228 216 205 205 206 204 207 208 212 217 211 206 204 201 203 204 204 208 208 206 206 203 200 203 206 207 207 206 206 207 207 205 207 212 215 214 215 215 211 210 210 208 208 210 212 212 208 205 204 201 203 207 212 220 223 226 227 224 226 226 220 214 203 196 201 205 208 209 206 205 195 187
131 144 145 122 124 123 162 198 174 233 246 239 210 209 222 246 239 197 242 238 227 232 234 236 237 235 225 204 198 204 203 205 203 205 214 210 203 197 195 202 201 198 203 206 206 206 203 201 203 205 207 207 206 205 206 207 206 207 212 217 216 217 217 213 212 210 207 206 206 209 210 204 200 202 205 210 214 217 219 218 220 216 209 212 209 202 203 204 208 218 224 227 214 199 198 196 192
151 161 159 152 154 158 197 192 196 234 224 107 160 191 223 245 249 250 253 251 247 241 237 243 246 246 242 216 201 207 202 195 194 199 209 205 203 200 198 201 200 199 203 205 205 204 203 203 203 205 208 207 205 206 206 206 207 208 211 215 217 219 219 218 217 215 210 206 203 205 205 199 197 203 208 214 217 218 215 209 210 208 202 202 201 199 202 208 217 220 219 223 207 193 197 196 190
175 169 171 177 166 177 207 194 215 248 208 163 158 170 252 264 263 248 249 253 253 245 240 250 253 253 261 248 215 224 211 187 189 197 209 207 207 209 206 203 201 206 208 206 208 208 207 206 205 208 210 207 205 206 207 207 208 209 209 211 215 218 220 219 219 219 214 209 206 206 206 203 204 209 212 215 218 218 215 215 216 212 209 208 206 207 210 210 213 210 206 212 202 191 192 189 181
178 178 184 194 179 188 209 196 215 233 190 164 161 168 248 262 22 293 259 262 260 259 253 257 260 254 265 279 258 253 251 227 201 211 231 225 221 227 230 223 210 214 216 213 213 213 212 211 209 211 211 206 205 207 206 207 209 208 208 209 212 216 218 218 219 220 216 213 210 209 209 209 212 216 216 218 221 218 214 217 221 216 213 214 212 213 217 220 218 210 202 202 196 190 190 186 180
186 193 196 212 213 210 221 242 217 211 185 182 184 227 261 277 318 291 267 247 220 232 249 251 255 249 245 253 248 235 226 214 191 207 243 239 225 220 228 234 228 221 220 220 221 220 219 218 214 214 213 207 206 207 207 206 206 206 206 207 209 213 215 215 217 218 215 212 212 211 211 214 216 217 216 217 220 217 212 215 218 215 213 213 213 216 222 228 220 201 191 195 196 194 189 183 179
168 204 204 197 339 244 222 194 81 52 271 232 191 237 265 279 282 258 244 248 226 206 223 237 245 245 244 249 248 238 219 192 179 197 228 231 216 213 215 220 221 217 217 221 225 226 225 223 218 216 214 209 207 207 205 204 203 202 203 204 206 209 212 212 214 216 213 211 213 213 213 214 217 218 216 216 217 214 211 214 215 212 211 211 214 219 225 227 215 198 196 201 198 190 184 181 180
156 195 190 128 40 302 240 222 190 201 253 244 200 231 251 253 268 222 214 245 243 214 211 225 241 243 244 250 253 255 236 177 178 194 213 223 217 215 213 212 215 214 215 220 225 228 228 226 222 218 214 211 208 206 205 204 201 201 202 204 206 208 209 210 213 215 212 211 213 213 211 213 217 218 215 216 216 211 209 210 211 209 208 210 214 219 224 221 213 207 207 203 193 184 182 181 181
162 187 172 162 210 220 201 220 227 213 235 257 226 237 249 229 233 234 214 234 253 237 214 212 231 235 235 244 250 260 253 172 187 197 203 210 210 210 208 208 213 213 215 219 221 225 227 226 224 221 218 215 211 208 207 206 201 202 205 207 208 209 210 210 212 213 211 210 212 212 210 213 216 214 211 213 214 210 207 207 205 204 205 208 212 217 221 215 209 210 207 197 187 184 183 181 181
278 181 176 197 234 219 204 208 228 226 233 267 258 244 248 227 220 229 231 229 241 252 233 213 228 233 229 242 253 264 275 235 232 220 212 218 218 222 221 216 217 217 219 221 218 220 224 225 223 221 219 217 213 210 209 207 204 205 209 210 210 210 211 211 213 212 210 211 212 210 211 214 215 210 208 211 212 210 207 204 202 202 204 206 208 214 216 210 206 208 201 192 186 185 185 183 182
179 183 186 195 199 216 231 214 219 242 238 259 271 259 255 221 195 211 222 227 233 246 255 239 230 229 191 270 291 303 306 296 311 331 321 310 286 264 249 228 218 216 215 217 216 218 224 225 225 221 216 214 213 211 212 213 212 214 215 215 214 213 213 214 214 213 212 213 212 211 214 215 212 208 208 211 211 210 207 203 201 202 204 206 208 212 212 206 203 203 197 191 187 185 186 184 183
184 190 188 185 180 174 196 212 208 214 235 243 262 270 263 162 153 186 194 216 231 241 261 261 246 265 9 53 94 238 279 283 295 310 310 310 309 290 264 224 206 205 206 214 214 213 218 220 222 220 215 216 214 213 216 219 219 220 220 219 218 216 215 213 212 212 212 212 212 212 215 214 210 210 212 212 212 210 206 202 201 202 203 206 210 212 210 204 201 200 196 191 188 187 186 185 183